Weather Roundup
Issued by NWS Chicago, IL

Home | Current Version | Previous Version | Graphics & Text | Print | Product List | Glossary On
Versions: 1 2 3 4 5 6 7 8 9 10 11 12 13 14 15 16 17 18 19 20 21 22 23 24 25 26 27 28 29 30 31 32 33 34 35 36 37 38 39 40 41 42 43 44 45 46 47 48 49 50
000
NZUS59 KLOT 311506
HRRLOT

CHICAGO AREA WEATHER ROUNDUP
NATIONAL WEATHER SERVICE CHICAGO/ROMEOVILLE IL
1000 AM CDT THU JUL 31 2014

NOTE: "FAIR" INDICATES FEW OR NO CLOUDS BELOW 12,000 FEET WITH NO
SIGNIFICANT WEATHER AND/OR OBSTRUCTIONS TO VISIBILITY.

* THESE STATIONS ARE NOT UNDER NWS QUALITY CONTROL. THEY ALSO MAY NOT
  REPORT WEATHER SUCH AS PRECIPITATION OR FOG.

ILZ005-006-012>014-019>023-311600-
NORTHEAST ILLINOIS

CITY           SKY/WX    TMP DP  RH WIND       PRES   REMARKS
OHARE          SUNNY     75  57  53 W8        30.04R
MIDWAY         SUNNY     76  59  55 W12       30.04S
AURORA         SUNNY     73  60  63 SW10      30.06R
LANSING*       SUNNY     74  56  52 W8        30.06R
JOLIET*        SUNNY     72  58  61 W10       30.07R
WAUKEGAN       SUNNY     73  60  63 VRB6      30.02S
DUPAGE AIRPORT SUNNY     74  60  61 SW9       30.05R
WHEELING       SUNNY     75  59  57 SW8       30.05R
KANKAKEE*      SUNNY     74  63  68 SW6       30.08S
MORRIS*        SUNNY     73  62  66 W9        30.06S
LEWIS AIRPORT* SUNNY     74  58  59 W13       30.06S
NORTHERLY IS     N/A     74  55  51 W7          N/A
$$

WIZ051-052-058>065-066-070>072-311600-
SOUTHEAST WISCONSIN

CITY           SKY/WX    TMP DP  RH WIND       PRES   REMARKS
MILWAUKEE      SUNNY     73  59  61 W8        30.01S
KENOSHA*       SUNNY     72  61  68 W8        30.03R
RACINE*        SUNNY     73  60  63 W6        30.03S
BURLINGTON     SUNNY     71  60  68 W5        30.02S
WAUKESHA       SUNNY     70  59  68 SW5       30.03S
WEST BEND      SUNNY     70  59  68 W8        30.01S
$$

INZ001>003-010>013-019-020-311600-
NORTHWEST INDIANA

CITY           SKY/WX    TMP DP  RH WIND       PRES   REMARKS
GARY*          SUNNY     75  57  53 SW12      30.06R
MICHIGAN CITY* NOT AVBL
RENSSELAER*    NOT AVBL
VALPARAISO     MOSUNNY   76  58  53 W9        30.07R
$$

LMZ740>746-311600-
SOUTHERN LAKE MICHIGAN

STATION/POSITION TIME  SKY/WX   TEMP WIND        PRES    VSBY
                                AIR  DIR/SP/G
                 (UTC)          (F)  (DEG/KT/KT) (MB)    (MI)
HARRISON CRIB    1500            71  250/ 11/ 13   N/A
BURNHAM HARBOR   1500            75  290/  8/ 10   N/A
CALUMET HARBOR   1500            73  210/  6/ 11 1016.2R
BURNS HARBOR     NOT AVBL
MICHIGAN CITY    1500            71  210/  8/ 10   N/A
$$

ABBREVIATIONS USED IN REMARKS
   TC - TEMPERATURE IN CELSIUS
  WCI - WIND CHILL INDEX
   HX - HEAT INDEX
  VSB - VISIBILITY
$$


USA.gov is the U.S. government's official web portal to all federal, state and local government web resources and services.